| time (UTC) | temp C | wind direction | speed KPH | gust KPH | rain 1hr cm | rain 24hr cm | rain mn cm | humidity % | barometer mb |
| 20260504081505 | 3 | 297 | 0.0 | 0.0 | 0.00 | 0.00 | 0.00 | 74 | 1005.7 |
| 20260504044549 | 3 | 305 | 0.0 | 0.0 | 0.00 | 0.00 | 0.00 | 60 | 1006.2 |
| 20260504043050 | 3 | 294 | 0.0 | 0.0 | 0.00 | 0.00 | 0.00 | 59 | 1006.2 |
| 20260504041549 | 3 | 275 | 0.0 | 1.6 | 0.00 | 0.00 | 0.00 | 59 | 1006.3 |
| 20260504034555 | 3 | 288 | 0.0 | 0.0 | 0.00 | 0.00 | 0.00 | 59 | 1006.4 |
| 20260504033043 | 3 | 313 | 0.0 | 0.0 | 0.00 | 0.00 | 0.00 | 60 | 1006.4 |
| 20260504031543 | 3 | 301 | 0.0 | 0.0 | 0.00 | 0.00 | 0.00 | 62 | 1006.5 |
| 20260504024543 | 3 | 300 | 0.0 | 0.0 | 0.00 | 0.00 | 0.00 | 62 | 1006.5 |
| 20260504023042 | 3 | 299 | 0.0 | 0.0 | 0.00 | 0.00 | 0.00 | 62 | 1006.5 |
| 20260504021542 | 3 | 299 | 0.0 | 0.0 | 0.00 | 0.00 | 0.00 | 62 | 1006.6 |
| 20260504014558 | 3 | 292 | 0.0 | 1.6 | 0.00 | 0.00 | 0.00 | 62 | 1006.5 |
| 20260504013049 | 3 | 288 | 0.0 | 0.0 | 0.00 | 0.00 | 0.00 | 62 | 1006.5 |
| 20260504011544 | 3 | 297 | 0.0 | 0.0 | 0.00 | 0.00 | 0.00 | 62 | 1006.4 |
| 20260504004542 | 3 | 306 | 0.0 | 0.0 | 0.00 | 0.00 | 0.00 | 62 | 1006.2 |
| 20260504003049 | 3 | 305 | 0.0 | 0.0 | 0.00 | 0.00 | 0.00 | 62 | 1006.2 |
| 20260504001542 | 3 | 305 | 0.0 | 0.0 | 0.00 | 0.00 | 0.00 | 63 | 1006.0 |
| 20260503234547 | 4 | 314 | 0.0 | 0.0 | 0.00 | 0.00 | 0.00 | 61 | 1005.9 |
| 20260503233041 | 5 | 311 | 0.0 | 0.0 | 0.00 | 0.00 | 0.00 | 59 | 1005.9 |
| 20260503231541 | 5 | 288 | 0.0 | 11.3 | 0.00 | 0.00 | 0.00 | 60 | 1005.8 |
| 20260503224539 | 5 | 325 | 0.0 | 1.6 | 0.00 | 0.00 | 0.00 | 59 | 1005.9 |
| 20260503223038 | 5 | 243 | 0.0 | 0.0 | 0.00 | 0.00 | 0.00 | 61 | 1005.8 |
| 20260503221537 | 5 | 296 | 0.0 | 1.6 | 0.00 | 0.00 | 0.00 | 62 | 1005.8 |
| 20260503214534 | 5 | 296 | 0.0 | 8.0 | 0.00 | 0.00 | 0.00 | 62 | 1005.7 |
| 20260503213034 | 4 | 288 | 0.0 | 4.8 | 0.00 | 0.00 | 0.00 | 64 | 1005.8 |
| 20260503211534 | 4 | 277 | 0.0 | 6.4 | 0.00 | 0.00 | 0.00 | 65 | 1005.8 |
| 20260503204534 | 5 | 281 | 0.0 | 4.8 | 0.00 | 0.00 | 0.00 | 65 | 1005.7 |
| 20260503203034 | 4 | 302 | 0.0 | 4.8 | 0.00 | 0.00 | 0.00 | 64 | 1005.7 |
| 20260503201534 | 5 | 280 | 0.0 | 6.4 | 0.00 | 0.00 | 0.00 | 63 | 1005.6 |
| 20260503194530 | 3 | 290 | 0.0 | 1.6 | 0.00 | 0.00 | 0.00 | 69 | 1005.8 |
| 20260503193033 | 4 | 279 | 0.0 | 1.6 | 0.00 | 0.00 | 0.00 | 66 | 1006.0 |
| 20260503191528 | 4 | 287 | 0.0 | 0.0 | 0.00 | 0.00 | 0.00 | 70 | 1006.0 |
| 20260503184528 | 4 | 280 | 0.0 | 4.8 | 0.00 | 0.00 | 0.00 | 62 | 1006.0 |
| 20260503183042 | 4 | 290 | 0.0 | 17.7 | 0.00 | 0.00 | 0.00 | 60 | 1006.1 |
| 20260503181527 | 4 | 314 | 1.6 | 19.3 | 0.00 | 0.00 | 0.00 | 65 | 1006.2 |
| 20260503174526 | 3 | 297 | 0.0 | 9.7 | 0.00 | 0.00 | 0.00 | 65 | 1006.1 |
| 20260503173026 | 3 | 295 | 0.0 | 6.4 | 0.00 | 0.00 | 0.00 | 69 | 1006.2 |
| 20260503171525 | 4 | 300 | 1.6 | 25.7 | 0.00 | 0.00 | 0.00 | 66 | 1006.3 |